Pineville, WV

3:31 PM EST on December 17, 2017 (GMT -0500)
Pineville

Weather History for KI16 - April, 2013

Change the Weather History Date:

Friday, April 12, 2013

  Actual Average (KBKW) Record (KBKW)
Temperature  
Mean Temperature 60 °F -  
Max Temperature 67 °F 62 °F 80 °F (1916)
Min Temperature 52 °F 39 °F 18 °F (1976)
Degree Days  
Heating Degree Days 6    
Growing Degree Days 10 (Base 50)    
Moisture  
Dew Point 51 °F    
Average Humidity 75    
Maximum Humidity 100    
Minimum Humidity 39    
Precipitation  
Precipitation 0.00 in - - ()
Sea Level Pressure  
Sea Level Pressure 29.79 in    
Wind  
Wind Speed - (North)    
Max Wind Speed -    
Max Gust Speed -    
Visibility 9 miles    
Events Rain    
Averages and records for this station are not official NWS values.
T = Trace of Precipitation, MM = Missing Value Source: NWS Daily Summary

Daily Weather History Graph

Daily Weather History Graph

Search for Another Location

Airport or City:

Trip Planner

Search our weather history database for the weather conditions in past years. The results will help you decide how hot, cold, wet, or windy it might be!

Date:

Astronomy

Apr. 12, 2013 Rise Set
Actual Time 6:55 AM EDT 7:59 PM EDT
Civil Twilight 6:28 AM EDT 8:26 PM EDT
Nautical Twilight 5:56 AM EDT 8:58 PM EDT
Astronomical Twilight 5:23 AM EDT 9:31 PM EDT
Moon 8:06 AM EDT (4/12) 10:25 PM EDT (4/12)
Length of Visible Light 13h 57m
Length of Day
13h 04m
Waxing Crescent, 5% of the Moon is Illuminated
Apr 12
Waxing Crescent
Apr 18
First Quarter
Apr 25
Full
May 2
Last Quarter
May 9
New

Hourly Weather History & Observations

Time (EDT) Temp. Dew Point Humidity Pressure Visibility Wind Dir Wind Speed Gust Speed Precip Events Conditions
12:15 AM 67.6 °F 61.7 °F 81% 29.72 in 10.0 mi North - - N/A Rain Light Rain
12:35 AM 67.6 °F 63.1 °F 85% 29.73 in 4.0 mi North - - N/A Rain Heavy Rain
12:55 AM 65.8 °F 63.7 °F 93% 29.74 in 7.0 mi North - - N/A Rain Rain
1:15 AM 62.6 °F 61.0 °F 94% 29.75 in 4.0 mi North - - N/A Rain Heavy Rain
1:35 AM 61.7 °F 61.0 °F 97% 29.76 in 3.0 mi North - - N/A Rain Heavy Rain
1:55 AM 61.2 °F 61.0 °F 99% 29.73 in 7.0 mi North - - N/A Rain Rain
2:15 AM 60.8 °F 60.8 °F 100% 29.74 in 4.0 mi North - - N/A Rain Rain
2:35 AM 61.0 °F 61.0 °F 100% 29.75 in 4.0 mi North - - N/A Rain Rain
2:55 AM 60.8 °F 60.8 °F 100% 29.73 in 4.0 mi North - - N/A Rain Rain
3:15 AM 60.8 °F 60.8 °F 100% 29.71 in 5.0 mi North - - N/A Rain Rain
3:35 AM 60.8 °F 60.8 °F 100% 29.68 in 10.0 mi North - - N/A Rain Light Rain
3:55 AM 60.8 °F 60.8 °F 100% 29.63 in 10.0 mi North - - N/A Rain Light Rain
4:15 AM 60.8 °F 60.8 °F 100% 29.64 in 10.0 mi North - - N/A   Mostly Cloudy
4:35 AM 60.4 °F 60.4 °F 100% 29.65 in 7.0 mi North - - N/A   Mostly Cloudy
4:55 AM 60.3 °F 60.3 °F 100% 29.65 in 10.0 mi North - - N/A   Mostly Cloudy
5:15 AM 59.7 °F 59.7 °F 100% 29.65 in 10.0 mi North - - N/A   Mostly Cloudy
5:35 AM 59.2 °F 59.2 °F 100% 29.65 in 5.0 mi North - - N/A   Mostly Cloudy
5:55 AM 59.2 °F 59.2 °F 100% 29.65 in 10.0 mi North - - N/A   Overcast
6:15 AM 59.2 °F 59.2 °F 100% 29.65 in 7.0 mi North - - N/A   Overcast
6:35 AM 59.2 °F 59.2 °F 100% 29.66 in 7.0 mi North - - N/A   Overcast
6:55 AM 59.5 °F 59.5 °F 100% 29.67 in 7.0 mi North - - N/A Rain Light Rain
7:15 AM 59.4 °F 59.4 °F 100% 29.68 in 5.0 mi North - - N/A Rain Light Rain
7:35 AM 59.9 °F 59.9 °F 100% 29.70 in 4.0 mi North - - N/A Rain Rain
7:55 AM 60.4 °F 60.4 °F 100% 29.70 in 10.0 mi North - - N/A   Overcast
8:15 AM 60.8 °F 60.8 °F 100% 29.72 in 10.0 mi North - - N/A   Overcast
8:35 AM 60.6 °F 60.6 °F 100% 29.73 in 7.0 mi North - - N/A Rain Rain
8:55 AM 59.2 °F 58.1 °F 96% 29.75 in 5.0 mi North - - N/A Rain Light Rain
9:15 AM 58.6 °F 57.4 °F 96% 29.77 in 10.0 mi North - - N/A   Overcast
9:35 AM 58.3 °F 57.0 °F 96% 29.77 in 5.0 mi North - - N/A Rain Rain
9:55 AM 57.2 °F 56.3 °F 97% 29.78 in 10.0 mi North - - N/A   Light Drizzle
10:15 AM 58.8 °F 55.9 °F 90% 29.79 in 10.0 mi North - - N/A   Overcast
10:55 AM 59.0 °F 54.7 °F 86% 29.80 in 10.0 mi North - - N/A   Overcast
11:15 AM 59.9 °F 54.9 °F 83% 29.81 in 10.0 mi North - - N/A   Overcast
11:35 AM 59.4 °F 53.8 °F 82% 29.81 in 10.0 mi North - - N/A   Overcast
12:15 PM 59.9 °F 53.1 °F 78% 29.81 in 10.0 mi North - - N/A   Overcast
12:35 PM 60.1 °F 52.7 °F 77% 29.81 in 10.0 mi North - - N/A   Overcast
1:15 PM 60.8 °F 52.7 °F 75% 29.80 in 10.0 mi North - - N/A   Overcast
1:35 PM 61.3 °F 52.2 °F 72% 29.81 in 10.0 mi North - - N/A   Overcast
2:35 PM 61.9 °F 49.6 °F 64% 29.82 in 10.0 mi North - - N/A   Mostly Cloudy
2:55 PM 61.3 °F 48.9 °F 64% 29.82 in 10.0 mi North - - N/A   Mostly Cloudy
3:15 PM 61.2 °F 48.6 °F 63% 29.82 in 10.0 mi North - - N/A   Mostly Cloudy
3:35 PM 63.3 °F 47.8 °F 57% 29.81 in 10.0 mi North - - N/A   Scattered Clouds
3:55 PM 63.9 °F 46.0 °F 52% 29.81 in 10.0 mi North - - N/A   Scattered Clouds
4:15 PM 64.2 °F 43.2 °F 46% 29.81 in 10.0 mi North - - N/A   Clear
4:35 PM 64.8 °F 42.4 °F 44% 29.81 in 10.0 mi North - - N/A   Clear
4:55 PM 65.5 °F 42.1 °F 43% 29.81 in 10.0 mi North - - N/A   Clear
5:15 PM 64.9 °F 40.3 °F 40% 29.81 in 10.0 mi North - - N/A   Clear
5:35 PM 65.3 °F 40.3 °F 40% 29.82 in 10.0 mi North - - N/A   Clear
5:55 PM 65.5 °F 40.1 °F 39% 29.82 in 10.0 mi North - - N/A   Clear
6:15 PM 65.1 °F 39.7 °F 39% 29.82 in 10.0 mi North - - N/A   Clear
6:35 PM 64.4 °F 38.8 °F 39% 29.83 in 10.0 mi North - - N/A   Clear
6:55 PM 63.1 °F 39.2 °F 41% 29.83 in 10.0 mi North - - N/A   Clear
7:15 PM 61.9 °F 38.7 °F 42% 29.84 in 10.0 mi North - - N/A   Clear
7:35 PM 61.0 °F 38.5 °F 43% 29.84 in 10.0 mi North - - N/A   Clear
7:55 PM 59.5 °F 39.0 °F 47% 29.85 in 10.0 mi North - - N/A   Clear
8:15 PM 58.6 °F 38.8 °F 48% 29.86 in 10.0 mi North - - N/A   Clear
8:35 PM 57.7 °F 38.7 °F 49% 29.87 in 10.0 mi North - - N/A   Clear
8:55 PM 57.6 °F 37.6 °F 47% 29.89 in 10.0 mi North - - N/A   Clear
9:15 PM 55.9 °F 38.1 °F 51% 29.90 in 10.0 mi North - - N/A   Clear
9:35 PM 55.4 °F 37.6 °F 51% 29.91 in 10.0 mi North - - N/A   Clear
9:55 PM 54.5 °F 37.0 °F 52% 29.93 in 10.0 mi North - - N/A   Clear
10:15 PM 53.2 °F 37.4 °F 55% 29.94 in 10.0 mi North - - N/A   Scattered Clouds
10:35 PM 52.7 °F 37.6 °F 56% 29.95 in 10.0 mi North - - N/A   Scattered Clouds
10:55 PM 52.7 °F 37.0 °F 55% 29.95 in 10.0 mi North - - N/A   Mostly Cloudy
11:15 PM 54.0 °F 36.1 °F 51% 29.95 in 10.0 mi North - - N/A   Overcast
11:35 PM 54.7 °F 35.8 °F 49% 29.95 in 10.0 mi North - - N/A   Overcast
11:55 PM 54.7 °F 36.0 °F 49% 29.96 in 10.0 mi North - - N/A   Overcast